DW7780 Weather Reports


Display with metric or nautical units.
time (UTC)temp
F
wind
direction
speed
MPH
gust
MPH
rain 1hr
in
rain 24hr
in
rain mn
in
humidity
%
barometer
mb
20260504024528 42 0 0.0 0.0 0.00 0.00 0.00 78 1013.2
20260504023028 42 0 0.0 0.0 0.00 0.00 0.00 77 1013.2
20260504021530 43 0 0.0 0.0 0.00 0.00 0.00 76 1013.2
20260504020028 44 0 0.0 0.0 0.00 0.00 0.00 75 1013.0
20260504014534 44 0 0.0 0.0 0.00 0.00 0.00 73 1013.1
20260504013032 45 0 0.0 0.0 0.00 0.00 0.00 73 1013.0
20260504011530 47 0 0.0 0.0 0.00 0.00 0.00 70 1012.8
20260504010028 48 0 0.0 0.0 0.00 0.00 0.00 66 1012.6
20260504004529 50 0 0.0 0.0 0.00 0.00 0.00 59 1012.4
20260504003032 52 0 0.0 0.0 0.00 0.00 0.00 59 1012.2
20260504001531 54 0 0.0 0.0 0.00 0.00 0.00 50 1012.0
20260504000028 56 0 0.0 2.0 0.00 0.00 0.00 49 1011.8
20260503234539 57 268 0.0 5.0 0.00 0.00 0.00 38 1011.7
20260503233036 58 0 0.0 4.0 0.00 0.00 0.00 37 1011.6
20260503231533 58 232 2.0 8.0 0.00 0.00 0.00 35 1011.6
20260503230028 59 268 1.0 4.0 0.00 0.00 0.00 34 1011.4
20260503224529 59 277 2.0 10.0 0.00 0.00 0.00 35 1011.4
20260503223027 59 270 2.0 7.0 0.00 0.00 0.00 34 1011.4
20260503221534 59 300 4.0 13.0 0.00 0.00 0.00 33 1011.3
20260503220028 60 261 3.0 8.0 0.00 0.00 0.00 32 1011.2
20260503214530 60 267 2.0 8.0 0.00 0.00 0.00 33 1011.2
20260503213027 60 315 6.0 14.0 0.00 0.00 0.00 32 1011.3
20260503211528 59 292 3.0 11.0 0.00 0.00 0.00 34 1011.4
20260503210028 59 278 3.0 12.0 0.00 0.00 0.00 33 1011.3
20260503204530 59 267 3.0 11.0 0.00 0.00 0.00 36 1011.5
20260503203036 58 287 3.0 12.0 0.00 0.00 0.00 36 1011.6
20260503201530 58 308 2.0 11.0 0.00 0.00 0.00 35 1011.6
20260503200029 58 279 5.0 12.0 0.00 0.00 0.00 38 1011.7
20260503194528 57 292 6.0 16.0 0.00 0.00 0.00 33 1012.0
20260503193028 57 242 4.0 14.0 0.00 0.00 0.00 38 1012.0
20260503191534 57 180 4.0 14.0 0.00 0.00 0.00 37 1012.0
20260503190028 57 267 5.0 14.0 0.00 0.00 0.00 36 1012.2
20260503184529 57 293 6.0 14.0 0.00 0.00 0.00 35 1012.4
20260503183028 57 0 4.0 13.0 0.00 0.00 0.00 39 1012.5
20260503181529 56 278 4.0 21.0 0.00 0.00 0.00 39 1012.6
20260503180030 55 277 3.0 14.0 0.00 0.00 0.00 40 1012.5
20260503174527 54 277 4.0 14.0 0.00 0.00 0.00 40 1012.8
20260503173029 54 0 5.0 11.0 0.00 0.00 0.00 40 1012.7
20260503171528 54 301 3.0 11.0 0.00 0.00 0.00 44 1013.0
20260503081531 37 0 0.0 0.0 0.00 0.01 0.00 85 1011.1
20260503071526 37 0 0.0 0.0 0.00 0.01 0.00 83 1010.6
20260503054535 41 0 0.0 0.0 0.00 0.01 0.00 80 1011.2
20260503053028 41 0 0.0 0.0 0.00 0.01 0.00 75 1011.3
20260503051529 42 0 0.0 0.0 0.00 0.01 0.00 77 1011.3
20260503050036 43 0 0.0 0.0 0.00 0.01 0.00 79 1011.4
20260503044531 43 0 0.0 2.0 0.00 0.01 0.00 76 1011.5
20260503043030 44 0 0.0 0.0 0.00 0.01 0.00 76 1011.6
20260503041535 45 0 0.0 0.0 0.00 0.01 0.00 75 1011.6
20260503040028 45 0 0.0 1.0 0.00 0.01 0.00 71 1011.7
20260503034528 46 0 0.0 0.0 0.00 0.01 0.01 76 1011.6
20260503033028 46 0 0.0 0.0 0.00 0.01 0.01 67 1011.6
20260503031530 47 0 0.0 0.0 0.00 0.01 0.01 64 1011.7
20260503030033 47 0 0.0 0.0 0.00 0.01 0.01 65 1011.7